Stations météo

réclame
Mon MeteoGroup
Katterjakk A, Suède (2019): Température de l'air & dewpoint: 01.08.2020 17:00:00 - 07.08.2020 17:00:00 (CEST)Katterjakk A, Suède (2019): Vitesse du vent & gusts: 01.08.2020 17:00:00 - 07.08.2020 17:00:00 (CEST)Katterjakk A, Suède (2019): Direction du vent: 01.08.2020 17:00:00 - 07.08.2020 17:00:00 (CEST)Katterjakk A, Suède (2019): reduced air pressure: 01.08.2020 17:00:00 - 07.08.2020 17:00:00 (CEST)Katterjakk A, Suède (2019): visibility: 01.08.2020 17:00:00 - 07.08.2020 17:00:00 (CEST)Katterjakk A, Suède (2019): Quantités de précipitations: 01.08.2020 17:00:00 - 07.08.2020 17:00:00 (CEST)
Date & Time tt [°C] td [°C] ff [km/h] ff [knt] fx [km/h] fx [knt] dd ppp [hPa] vv [km] rr [mm]
07.08.2020 17:00:00 - - - - - - - - - -
07.08.2020 16:00:00 16,3 10,2 13 7 22 12 NW 1022,0 43 0,0
07.08.2020 15:00:00 15,8 9,7 13 7 22 12 WNW 1022,3 48 0,0
07.08.2020 14:00:00 14,9 9,9 14 8 21 12 NW 1022,7 50 0,0
07.08.2020 13:00:00 14,5 9,7 13 7 22 12 NW 1022,6 42 0,0
07.08.2020 12:00:00 13,5 8,8 13 7 22 12 NNW 1022,9 40 0,0
07.08.2020 11:00:00 13,0 10,0 14 8 20 11 NNW 1022,8 36 0,0
07.08.2020 10:00:00 11,8 9,7 9 5 16 8 NW 1023,2 37 0,0
07.08.2020 09:00:00 11,1 9,8 7 4 16 9 WNW 1023,3 36 0,0
07.08.2020 08:00:00 10,4 10,1 9 5 20 11 W 1023,1 8 0,2
07.08.2020 07:00:00 10,3 10,1 7 4 27 14 WNW 1022,6 4,5 0,0
07.08.2020 06:00:00 10,3 10,1 9 5 23 13 WNW 1022,2 3,2 0,1
07.08.2020 05:00:00 10,1 9,8 15 8 24 13 WNW 1021,9 3,6 0,2
07.08.2020 04:00:00 11,0 10,2 11 6 20 11 W 1021,3 4,9 0,8
07.08.2020 03:00:00 10,9 10,4 12 7 23 12 NW 1020,9 7 0,5
07.08.2020 02:00:00 11,6 10,8 13 7 24 13 WNW 1020,3 6 0,6
07.08.2020 01:00:00 11,5 11,0 13 7 22 12 WNW 1019,9 8 0,2
07.08.2020 00:00:00 11,5 10,9 10 6 17 9 W 1019,5 24 0,2
06.08.2020 23:00:00 11,8 10,7 11 6 18 10 W 1018,9 15 0,0
06.08.2020 22:00:00 11,9 10,6 9 5 23 13 W 1018,2 50 0,0
06.08.2020 21:00:00 12,3 10,5 13 7 21 11 WNW 1017,4 50 0,0
06.08.2020 20:00:00 12,9 10,1 10 5 17 9 NW 1016,7 50 0,0
06.08.2020 19:00:00 12,8 10,5 5 3 13 7 W 1016,5 50 0,0
06.08.2020 18:00:00 12,8 10,5 7 4 26 14 W 1016,4 50 0,0
06.08.2020 17:00:00 14,0 9,8 10 6 42 23 W 1015,9 45 0,0
06.08.2020 16:00:00 17,6 6,8 11 6 19 10 W 1013,9 50 0,0
06.08.2020 15:00:00 18,9 6,0 16 9 35 19 SSW 1013,0 48 0,0
06.08.2020 14:00:00 17,8 7,5 4 2 16 9 E 1013,0 46 0,0
06.08.2020 13:00:00 17,9 9,0 10 5 18 10 NE 1012,6 45 0,0
06.08.2020 12:00:00 16,0 9,2 9 5 18 10 NE 1013,0 40 0,0
06.08.2020 11:00:00 15,6 9,5 9 5 14 8 NNE 1012,8 48 0,0
06.08.2020 10:00:00 14,2 9,2 8 4 13 7 NNE 1013,0 42 0,0
06.08.2020 09:00:00 12,7 7,8 5 3 11 6 E 1013,1 48 0,0
06.08.2020 08:00:00 11,1 7,8 5 3 8 4 NE 1013,0 50 0,0
06.08.2020 07:00:00 10,2 7,6 2 1 8 4 N 1012,7 50 0,0
06.08.2020 06:00:00 9,2 6,8 2 1 6 3 SSE 1012,5 50 0,0
06.08.2020 05:00:00 6,5 5,4 5 3 8 4 SSW 1012,9 50 0,0
06.08.2020 04:00:00 5,7 5,1 2 1 7 4 W 1012,6 50 0,0
06.08.2020 03:00:00 5,6 4,6 4 2 11 6 SW 1012,1 50 0,0
06.08.2020 02:00:00 6,7 5,8 4 2 12 6 SW 1011,6 50 0,0
06.08.2020 01:00:00 7,0 5,5 3 2 13 7 SSW 1011,1 50 0,0
06.08.2020 00:00:00 7,4 5,5 4 2 14 7 WSW 1010,6 50 0,0
05.08.2020 23:00:00 7,6 5,6 9 5 12 6 WSW 1010,2 50 0,0
05.08.2020 22:00:00 8,8 6,1 8 4 12 7 SW 1009,7 50 0,0
05.08.2020 21:00:00 10,9 6,6 6 3 9 5 WSW 1009,1 50 0,0
05.08.2020 20:00:00 13,3 6,9 6 3 10 6 WSW 1008,2 50 0,0
05.08.2020 19:00:00 14,0 8,2 8 4 13 7 WNW 1007,9 50 0,0
05.08.2020 18:00:00 13,7 7,7 5 3 14 8 NW 1007,8 50 0,0
05.08.2020 17:00:00 14,6 8,1 11 6 22 12 WNW 1007,5 43 0,0
05.08.2020 16:00:00 14,4 7,0 11 6 21 11 WNW 1007,2 47 0,0
05.08.2020 15:00:00 15,0 7,5 8 4 19 11 W 1006,7 48 0,0
05.08.2020 14:00:00 14,6 8,1 6 4 14 8 NW 1006,7 45 0,0
05.08.2020 13:00:00 13,2 7,0 6 4 - - NW 1006,9 49 0,0
05.08.2020 12:00:00 12,6 7,7 9 5 13 7 NW 1006,8 50 0,0
05.08.2020 11:00:00 12,9 7,8 7 4 11 6 N 1006,5 46 0,0
05.08.2020 10:00:00 12,0 7,5 4 2 9 5 N 1006,6 50 0,0
05.08.2020 09:00:00 11,3 8,2 6 3 9 5 N 1006,6 50 0,0
05.08.2020 08:00:00 10,8 8,0 4 2 8 4 N 1006,7 50 0,0
05.08.2020 07:00:00 10,2 7,8 0 0 10 5 N 1006,7 50 0,0
05.08.2020 06:00:00 9,3 8,5 9 5 12 6 S 1006,9 50 0,0
05.08.2020 05:00:00 8,8 8,0 7 4 9 5 S 1007,0 13 0,2
05.08.2020 04:00:00 8,7 8,3 3 2 11 6 NW 1007,1 7 0,3
05.08.2020 03:00:00 8,9 8,0 0 0 15 8 N 1006,8 45 0,0
05.08.2020 02:00:00 8,6 7,8 4 2 10 6 W 1006,6 27 1,5
05.08.2020 01:00:00 8,7 7,9 10 5 13 7 S 1006,4 14 0,5
05.08.2020 00:00:00 9,0 7,9 4 2 10 5 WSW 1006,3 38 0,1
04.08.2020 23:00:00 9,7 7,5 11 6 18 10 SSW 1005,9 50 0,0
04.08.2020 22:00:00 9,7 7,5 5 3 8 5 NW 1005,8 50 0,0
04.08.2020 21:00:00 9,7 8,1 3 2 8 4 W 1005,7 50 0,0
04.08.2020 20:00:00 10,0 7,8 6 3 10 6 W 1005,5 50 0,0
04.08.2020 19:00:00 9,9 7,8 3 2 11 6 NW 1005,4 50 0,0
04.08.2020 18:00:00 10,0 8,3 6 3 16 9 NNW 1005,2 45 0,5
04.08.2020 17:00:00 10,0 8,9 3 2 14 7 W 1005,1 14 0,9
04.08.2020 16:00:00 10,0 8,6 6 3 24 13 W 1004,9 17 1,5
04.08.2020 15:00:00 10,2 9,1 8 4 21 11 WNW 1004,6 14 1,1
04.08.2020 14:00:00 10,4 9,3 9 5 21 11 WNW 1004,2 18 0,2
04.08.2020 13:00:00 10,7 9,1 13 7 21 12 NW 1003,7 32 0,1
04.08.2020 12:00:00 11,3 10,4 9 5 23 13 WNW 1003,2 11 1,1
04.08.2020 11:00:00 10,3 9,4 13 7 29 16 NW 1003,3 10 0,2
04.08.2020 10:00:00 10,9 10,4 16 9 26 14 NW 1002,8 5 0,1
04.08.2020 09:00:00 11,4 10,6 11 6 18 10 NW 1002,4 9 0,2
04.08.2020 08:00:00 11,4 10,8 9 5 16 9 NW 1002,2 22 0,1
04.08.2020 07:00:00 11,8 10,7 6 3 14 8 NNW 1002,0 27 0,0
04.08.2020 06:00:00 11,9 10,6 3 1 10 5 W 1001,9 42 0,1
04.08.2020 05:00:00 11,9 10,0 3 2 8 4 NE 1001,9 50 0,0
04.08.2020 04:00:00 12,4 9,8 4 2 11 6 W 1001,8 50 0,0
04.08.2020 03:00:00 10,8 9,2 4 2 8 4 S 1002,2 50 0,0
04.08.2020 02:00:00 11,3 9,2 0 0 10 5 N 1001,9 50 0,0
04.08.2020 01:00:00 11,9 9,5 4 2 11 6 SSW 1001,5 50 0,0
04.08.2020 00:00:00 12,1 9,3 6 4 13 7 SW 1001,4 50 0,0
03.08.2020 23:00:00 12,1 9,3 11 6 16 9 SW 1001,4 50 0,0
03.08.2020 22:00:00 13,4 9,6 9 5 14 8 W 1001,0 50 0,1
03.08.2020 21:00:00 13,0 10,0 7 4 28 15 SW 1001,1 34 0,5
03.08.2020 20:00:00 13,5 9,5 18 10 28 15 SSW 1000,9 50 0,3
03.08.2020 19:00:00 13,6 10,4 18 10 33 18 SSW 1001,0 46 1,6
03.08.2020 18:00:00 16,2 8,7 11 6 22 12 S 1000,4 47 0,0
03.08.2020 17:00:00 18,4 6,6 16 9 24 13 E 999,9 43 0,0
03.08.2020 16:00:00 18,7 7,8 13 7 23 12 ENE 1000,1 42 0,0
03.08.2020 15:00:00 18,7 8,6 15 8 22 12 E 1000,3 45 0,0
03.08.2020 14:00:00 18,3 9,1 13 7 22 12 ENE 1000,7 40 0,0
03.08.2020 13:00:00 17,5 8,9 13 7 23 13 ENE 1001,2 38 0,0
03.08.2020 12:00:00 16,2 7,9 10 6 22 12 ENE 1001,7 42 0,0
03.08.2020 11:00:00 15,6 8,6 11 6 19 10 NE 1002,0 47 0,0
03.08.2020 10:00:00 14,8 8,5 8 5 14 8 E 1002,7 50 0,0
03.08.2020 09:00:00 13,7 8,3 5 3 12 6 NE 1003,3 44 0,0
03.08.2020 08:00:00 12,2 7,5 3 1 10 5 SE 1003,9 44 0,0
03.08.2020 07:00:00 10,5 7,0 7 4 9 5 NE 1004,8 44 0,0
03.08.2020 06:00:00 10,2 7,4 3 2 6 3 ESE 1005,1 48 0,0
03.08.2020 05:00:00 8,7 7,5 4 2 5 3 NNW 1005,8 47 0,0
03.08.2020 04:00:00 6,0 5,3 0 0 6 3 N 1006,8 38 0,0
03.08.2020 03:00:00 6,5 5,8 3 2 9 5 SSW 1006,9 47 0,0
03.08.2020 02:00:00 7,1 6,0 3 1 5 3 W 1007,2 49 0,0
03.08.2020 01:00:00 7,2 5,5 3 2 8 4 W 1007,4 46 0,0
03.08.2020 00:00:00 8,6 6,7 3 2 11 6 NNW 1007,3 45 0,0
02.08.2020 23:00:00 11,3 8,0 8 4 11 6 NNW 1006,7 50 0,0
02.08.2020 22:00:00 11,8 8,3 3 2 13 7 NNW 1006,8 50 0,0
02.08.2020 21:00:00 14,7 8,4 5 3 19 10 WNW 1006,2 50 0,0
02.08.2020 20:00:00 15,2 8,4 12 7 26 14 E 1006,1 50 0,0
02.08.2020 19:00:00 15,7 8,7 18 10 31 17 E 1006,2 50 0,0
02.08.2020 18:00:00 16,0 8,7 20 11 31 17 E 1006,6 50 0,0
02.08.2020 17:00:00 16,0 8,7 21 12 30 16 E 1006,9 49 0,0
02.08.2020 16:00:00 16,3 9,2 23 12 32 18 E 1007,3 43 0,0
02.08.2020 15:00:00 16,0 9,4 22 12 35 19 E 1007,8 47 0,0
02.08.2020 14:00:00 15,5 8,9 25 13 34 18 E 1008,3 48 0,0
02.08.2020 13:00:00 15,5 8,9 23 12 32 17 E 1008,6 48 0,0
02.08.2020 12:00:00 15,4 9,1 18 10 27 14 ENE 1009,0 43 0,0
02.08.2020 11:00:00 14,9 8,8 16 8 25 13 E 1009,5 44 0,0
02.08.2020 10:00:00 14,4 9,0 16 9 26 14 ENE 1010,0 35 0,0
02.08.2020 09:00:00 14,1 9,1 14 8 21 11 ENE 1010,4 41 0,0
02.08.2020 08:00:00 13,0 8,9 5 3 11 6 SSW 1011,0 50 0,0
02.08.2020 07:00:00 12,7 9,2 3 1 9 5 ESE 1011,5 49 0,0
02.08.2020 06:00:00 11,3 8,7 2 1 6 3 N 1012,2 49 0,0
02.08.2020 05:00:00 9,3 7,9 0 0 8 5 N 1013,0 48 0,0
02.08.2020 04:00:00 7,6 7,0 4 2 7 4 SW 1013,9 43 0,0
02.08.2020 03:00:00 7,8 6,9 2 1 5 3 WSW 1014,0 47 0,0
02.08.2020 02:00:00 7,7 6,5 5 3 9 5 SW 1014,3 50 0,0
02.08.2020 01:00:00 10,0 7,6 5 3 9 5 NW 1014,0 50 0,0
02.08.2020 00:00:00 9,7 7,0 4 2 9 5 N 1014,1 50 0,0
01.08.2020 23:00:00 10,5 7,9 5 3 11 6 S 1014,1 50 0,0
01.08.2020 22:00:00 13,7 9,5 6 3 9 5 N 1013,4 50 0,0
01.08.2020 21:00:00 14,6 10,2 3 1 12 6 WNW 1013,4 50 0,0
01.08.2020 20:00:00 16,9 9,8 6 3 15 8 NNW 1013,2 50 0,0
01.08.2020 19:00:00 17,4 10,3 9 5 - - NNW 1013,2 50 0,0
01.08.2020 18:00:00 17,8 9,9 10 5 16 9 NW 1013,4 41 0,0
01.08.2020 17:00:00 18,7 9,2 7 4 15 8 WNW 1013,3 40 0,0

tt = Température de l'air
td = dewpoint
ff = Vitesse du vent
fx = gusts
dd = Direction du vent
ppp = reduced air pressure
vv = visibility
rr = Quantités de précipitations

stations d'obs. à proximité